Location: Baili�vre
(50.0696°N, 4.2409°E)
Time: 15:56:33
(UTC+00:00)

Cosmos 1805 Rocket - Pass Details

Date: 08 August 2020
Orbit: 605 x 630 km, 82.5° (Epoch: 18 September)

Event Time Altitude Azimuth Distance (km) Brightness Sun altitude
Rises 20:31:51 0° 198° (SSW) 2,893 6.8 -11.2°
Reaches altitude 10° 20:34:05 10° 201° (SSW) 1,995 6.0 -11.5°
Maximum altitude 20:38:28 62° 282° (WNW) 712 4.1 -12.0°
Drops below altitude 10° 20:42:55 10° 4° (N) 2,022 6.8 -12.5°
Sets 20:45:12 0° 8° (N) 2,936 7.6 -12.8°
